sat.trackr.live / text

‹ back to catalog

STARLINK-37534

NORAD 68897 · 2026-097C

PAYLOAD ACTIVE UNKNOWN

§ Identity

Operator
Country
US
Launch date
2026-04-30
Launch site
AFWTR
Launch vehicle
Mass (kg)
RCS (m²)

Purposes: comms

External: N2YO · Heavens-Above · Gunter

§ Orbital elements

Epoch: 2026-09-19T18:37:26.906304Z

Period
93.91 min
Inclination
97.2866°
Eccentricity
0.0001927
Mean motion
15.33453345 rev/d
Perigee alt
464.2 km
Apogee alt
466.8 km
Semi-major
6,843.7 km
B*
5.5296e-4
RAAN
96.9697°
Arg perigee
88.2433°
Mean anomaly
271.9031°
Rev number
2,198

§ Raw data

STARLINK-375341 68897U 26097C   26262.77600586  .00017824  00000+0  55296-3 0  99902 68897  97.2866  96.9697 0001927  88.2433 271.9031 15.33453345 21980

JSON: /api/v1/satellites/68897 · /tle

For live sub-satellite position, see the globe view (requires WebGL).

§ Visibility from observer

Set your observer location to see the next 7 days of passes ≥ 10°. The values pass through the URL so the page stays shareable.

No JS? Fill the form by hand. The geolocation button needs JavaScript.